• In United Kingdom
  • List of Countries
  • For 7 days
  • Water Temperature
  • Satellite Maps
  • Weather Map
  • Weather Widgets
  • user-avatar
    Login

    Hourly Weather Neiva

    Today, 21 February, Wednesday

    Time Temperature Precipitation Wind Pressure Humidity
    00:00 +27°C° 0.2 mm 1 mps 721 mmHg 71%
    01:00 +26°C° 0 mm 1 mps 721 mmHg 72%
    02:00 +26°C° 0.1 mm 1 mps 721 mmHg 73%
    03:00 +25°C° 0.1 mm 1 mps 721 mmHg 73%
    04:00 +25°C° 0.1 mm 1 mps 721 mmHg 73%
    05:00 +25°C° 0 mm 1 mps 721 mmHg 73%
    06:00 +25°C° 0 mm 1 mps 721 mmHg 72%
    07:00 +24°C° 0 mm 0 mps 722 mmHg 71%
    08:00 +28°C° 0 mm 1 mps 722 mmHg 64%
    09:00 +30°C° 0 mm 1 mps 722 mmHg 58%
    10:00 +31°C° 0 mm 1 mps 722 mmHg 52%
    11:00 +33°C° 0 mm 1 mps 722 mmHg 48%
    12:00 +34°C° 0 mm 1 mps 721 mmHg 44%
    13:00 +36°C° 0 mm 2 mps 721 mmHg 41%
    14:00 +35°C° 0 mm 1 mps 720 mmHg 42%
    15:00 +35°C° 0 mm 1 mps 719 mmHg 43%
    16:00 +34°C° 0 mm 1 mps 719 mmHg 44%
    17:00 +32°C° 0 mm 1 mps 719 mmHg 50%
    18:00 +30°C° 0 mm 1 mps 719 mmHg 56%
    19:00 +28°C° 0 mm 1 mps 719 mmHg 62%
    20:00 +27°C° 0 mm 1 mps 720 mmHg 63%
    21:00 +27°C° 0 mm 1 mps 721 mmHg 65%
    22:00 +26°C° 0 mm 1 mps 721 mmHg 66%
    23:00 +26°C° 0 mm 1 mps 721 mmHg 67%

    Tomorrow, 22 February, Thursday

    Time Temperature Precipitation Wind Pressure Humidity
    00:00 +26°C° 0 mm 1 mps 721 mmHg 67%
    01:00 +26°C° 0 mm 1 mps 721 mmHg 68%
    02:00 +25°C° 0 mm 1 mps 721 mmHg 69%
    03:00 +25°C° 0 mm 1 mps 721 mmHg 70%
    04:00 +25°C° 0 mm 1 mps 721 mmHg 71%
    05:00 +25°C° 0 mm 1 mps 721 mmHg 70%
    06:00 +25°C° 0 mm 1 mps 722 mmHg 70%
    07:00 +25°C° 0 mm 1 mps 722 mmHg 69%
    08:00 +27°C° 0 mm 1 mps 722 mmHg 62%
    09:00 +29°C° 0 mm 1 mps 723 mmHg 55%
    10:00 +32°C° 0 mm 2 mps 723 mmHg 48%
    11:00 +34°C° 0 mm 2 mps 722 mmHg 46%
    12:00 +34°C° 0 mm 2 mps 721 mmHg 45%
    13:00 +35°C° 0 mm 2 mps 721 mmHg 43%
    14:00 +35°C° 0.2 mm 2 mps 720 mmHg 45%
    15:00 +34°C° 0.2 mm 2 mps 719 mmHg 46%
    16:00 +34°C° 0.2 mm 2 mps 718 mmHg 48%
    17:00 +31°C° 0.2 mm 1 mps 719 mmHg 54%
    18:00 +29°C° 0.2 mm 1 mps 719 mmHg 60%
    19:00 +27°C° 0.2 mm 1 mps 719 mmHg 66%
    20:00 +27°C° 0.2 mm 1 mps 720 mmHg 69%
    21:00 +26°C° 0.2 mm 1 mps 720 mmHg 72%
    22:00 +25°C° 0.2 mm 1 mps 721 mmHg 75%
    23:00 +25°C° 0.2 mm 1 mps 721 mmHg 76%

    Day after tomorrow, 23 February, Friday

    Time Temperature Precipitation Wind Pressure Humidity
    00:00 +24°C° 0.2 mm 1 mps 721 mmHg 77%
    01:00 +24°C° 0.2 mm 1 mps 721 mmHg 78%
    02:00 +24°C° 0 mm 1 mps 721 mmHg 78%
    03:00 +23°C° 0 mm 1 mps 721 mmHg 79%
    04:00 +23°C° 0 mm 1 mps 720 mmHg 79%
    05:00 +23°C° 0 mm 1 mps 721 mmHg 77%
    06:00 +24°C° 0 mm 1 mps 721 mmHg 76%
    07:00 +24°C° 0 mm 1 mps 722 mmHg 74%
    08:00 +26°C° 0 mm 1 mps 722 mmHg 66%
    09:00 +29°C° 0 mm 1 mps 722 mmHg 58%
    10:00 +31°C° 0 mm 2 mps 722 mmHg 50%
    11:00 +32°C° 0 mm 2 mps 722 mmHg 47%
    12:00 +34°C° 0 mm 2 mps 721 mmHg 45%
    13:00 +35°C° 0 mm 3 mps 720 mmHg 43%
    14:00 +35°C° 0.1 mm 2 mps 719 mmHg 43%
    15:00 +35°C° 0.1 mm 2 mps 718 mmHg 44%
    16:00 +35°C° 0.1 mm 2 mps 717 mmHg 44%
    17:00 +31°C° 0.1 mm 2 mps 718 mmHg 52%
    18:00 +29°C° 0.1 mm 1 mps 718 mmHg 59%
    19:00 +26°C° 0.1 mm 1 mps 719 mmHg 67%
    20:00 +26°C° 0.1 mm 1 mps 719 mmHg 69%
    21:00 +25°C° 0.1 mm 1 mps 720 mmHg 72%
    22:00 +25°C° 0.1 mm 1 mps 721 mmHg 74%
    23:00 +24°C° 0.1 mm 1 mps 721 mmHg 75%

    24 February, Saturday

    Time Temperature Precipitation Wind Pressure Humidity
    00:00 +24°C° 0.1 mm 1 mps 720 mmHg 76%
    01:00 +24°C° 0.1 mm 1 mps 720 mmHg 76%
    02:00 +24°C° 0.1 mm 1 mps 720 mmHg 76%
    03:00 +23°C° 0.1 mm 1 mps 720 mmHg 77%
    04:00 +23°C° 0.1 mm 1 mps 719 mmHg 77%
    05:00 +23°C° 0 mm 1 mps 720 mmHg 75%
    06:00 +24°C° 0 mm 1 mps 720 mmHg 74%
    07:00 +24°C° 0 mm 1 mps 721 mmHg 73%
    08:00 +26°C° 0 mm 1 mps 721 mmHg 66%
    09:00 +28°C° 0 mm 1 mps 721 mmHg 59%
    10:00 +31°C° 0 mm 2 mps 722 mmHg 52%
    11:00 +32°C° 0 mm 2 mps 721 mmHg 49%
    12:00 +34°C° 0 mm 2 mps 720 mmHg 46%
    13:00 +35°C° 0 mm 2 mps 719 mmHg 43%
    14:00 +34°C° 0.1 mm 2 mps 719 mmHg 43%
    15:00 +34°C° 0.1 mm 2 mps 718 mmHg 44%
    16:00 +34°C° 0.1 mm 2 mps 717 mmHg 44%
    17:00 +31°C° 0.1 mm 2 mps 718 mmHg 51%
    18:00 +29°C° 0.1 mm 1 mps 718 mmHg 57%
    19:00 +27°C° 0.1 mm 1 mps 719 mmHg 64%
    20:00 +26°C° 0 mm 1 mps 720 mmHg 66%
    21:00 +25°C° 0 mm 1 mps 720 mmHg 68%
    22:00 +25°C° 0 mm 1 mps 721 mmHg 70%
    23:00 +25°C° 0.1 mm 1 mps 721 mmHg 71%

    25 February, Sunday

    Time Temperature Precipitation Wind Pressure Humidity
    00:00 +24°C° 0.1 mm 1 mps 721 mmHg 72%
    01:00 +24°C° 0.1 mm 1 mps 721 mmHg 74%
    02:00 +23°C° 0.1 mm 1 mps 720 mmHg 75%
    03:00 +23°C° 0.1 mm 1 mps 720 mmHg 75%
    04:00 +23°C° 0.1 mm 1 mps 720 mmHg 76%
    05:00 +23°C° 0 mm 1 mps 720 mmHg 75%
    06:00 +24°C° 0 mm 1 mps 721 mmHg 75%
    07:00 +24°C° 0 mm 1 mps 721 mmHg 74%
    08:00 +26°C° 0 mm 1 mps 722 mmHg 67%
    09:00 +28°C° 0 mm 1 mps 722 mmHg 60%
    10:00 +31°C° 0 mm 2 mps 722 mmHg 53%
    11:00 +31°C° 0.1 mm 2 mps 721 mmHg 50%
    12:00 +32°C° 0.1 mm 2 mps 720 mmHg 47%
    13:00 +34°C° 0.1 mm 2 mps 719 mmHg 45%
    14:00 +34°C° 0.1 mm 2 mps 719 mmHg 44%
    15:00 +34°C° 0.1 mm 2 mps 718 mmHg 43%
    16:00 +34°C° 0.1 mm 2 mps 717 mmHg 43%
    17:00 +31°C° 0.1 mm 2 mps 718 mmHg 50%
    18:00 +29°C° 0.1 mm 1 mps 719 mmHg 57%
    19:00 +26°C° 0.1 mm 1 mps 719 mmHg 63%
    20:00 +26°C° 0 mm 1 mps 720 mmHg 65%
    21:00 +25°C° 0 mm 1 mps 721 mmHg 67%
    22:00 +25°C° 0 mm 1 mps 721 mmHg 69%
    23:00 +25°C° 0.1 mm 1 mps 721 mmHg 69%

    26 February, Monday

    Time Temperature Precipitation Wind Pressure Humidity
    00:00 +24°C° 0.1 mm 1 mps 721 mmHg 70%
    01:00 +24°C° 0.1 mm 1 mps 721 mmHg 70%
    02:00 +24°C° 0.1 mm 1 mps 721 mmHg 72%
    03:00 +23°C° 0.1 mm 1 mps 720 mmHg 73%
    04:00 +23°C° 0.1 mm 1 mps 720 mmHg 74%
    05:00 +23°C° 0 mm 1 mps 721 mmHg 73%
    06:00 +24°C° 0 mm 1 mps 721 mmHg 73%
    07:00 +24°C° 0 mm 1 mps 722 mmHg 73%
    08:00 +26°C° 0 mm 1 mps 722 mmHg 66%
    09:00 +28°C° 0 mm 1 mps 722 mmHg 59%
    10:00 +31°C° 0 mm 2 mps 722 mmHg 53%
    11:00 +32°C° 0 mm 2 mps 722 mmHg 49%
    12:00 +34°C° 0 mm 2 mps 721 mmHg 46%
    13:00 +35°C° 0 mm 2 mps 720 mmHg 42%
    14:00 +35°C° 0 mm 2 mps 719 mmHg 41%
    15:00 +35°C° 0 mm 2 mps 719 mmHg 41%
    16:00 +35°C° 0 mm 2 mps 718 mmHg 40%
    17:00 +31°C° 0 mm 2 mps 718 mmHg 46%
    18:00 +29°C° 0 mm 1 mps 719 mmHg 53%
    19:00 +27°C° 0 mm 1 mps 719 mmHg 59%
    20:00 +26°C° 0 mm 1 mps 720 mmHg 62%
    21:00 +26°C° 0 mm 1 mps 721 mmHg 64%
    22:00 +26°C° 0 mm 1 mps 721 mmHg 66%
    23:00 +25°C° 0 mm 1 mps 721 mmHg 67%
    Show more